AAL944 KMIA-KJFK

Flight info

Callsign AAL944
Flight time N/A
Altitude 41000
Route FOLZZ3 ALYRA PELCN Y309 FLRDA SAGGY CHIEZ Q161 KALDA Q108 SIE CAMRN5
Aircraft B788/H-SDE1E2E3FGHIJ2J3J4J5M1RWXY/LB1D1

Departure

Time 2026-05-04 00:45
Airport Miami International Airport (KMIA)

Arrival

Time N/A
Airport John F. Kennedy International Airport (KJFK)
Time Latitude Longitude Altitude Speed Heading
2026-05-04 00:41 25.80002 -80.29152 27 ft 0 kts 268°
2026-05-04 00:42 25.80001 -80.29160 27 ft 2 kts 268°
2026-05-04 00:42 25.80000 -80.29187 27 ft 5 kts 268°
2026-05-04 00:42 25.79998 -80.29243 27 ft 11 kts 267°
2026-05-04 00:42 25.79992 -80.29362 27 ft 20 kts 267°
2026-05-04 00:43 25.79986 -80.29529 19 ft 23 kts 267°
2026-05-04 00:43 25.79979 -80.29708 20 ft 24 kts 267°
2026-05-04 00:43 25.79970 -80.29896 17 ft 25 kts 268°
2026-05-04 00:43 25.80006 -80.30078 19 ft 16 kts 294°
2026-05-04 00:44 25.80056 -80.30117 23 ft 3 kts 17°
2026-05-04 00:44 25.80072 -80.30084 19 ft 6 kts 72°
2026-05-04 00:44 25.80075 -80.30046 19 ft 4 kts 86°
2026-05-04 00:44 25.80084 -80.29833 19 ft 60 kts 88°
2026-05-04 00:45 25.80113 -80.29125 27 ft 121 kts 86°
2026-05-04 00:45 25.80161 -80.27995 48 ft 170 kts 86°
2026-05-04 00:45 25.80240 -80.26699 777 ft 171 kts 86°
2026-05-04 00:45 25.80281 -80.25304 1377 ft 188 kts 91°
2026-05-04 00:46 25.79885 -80.23934 2167 ft 194 kts 120°
2026-05-04 00:46 25.79172 -80.22585 2769 ft 211 kts 123°
2026-05-04 00:46 25.78394 -80.21156 3489 ft 224 kts 122°
2026-05-04 00:46 25.77621 -80.19616 4312 ft 232 kts 120°
2026-05-04 00:47 25.77107 -80.18519 4791 ft 241 kts 119°
2026-05-04 00:47 25.76286 -80.16884 5480 ft 254 kts 122°
2026-05-04 00:47 25.75361 -80.15082 5972 ft 280 kts 121°
2026-05-04 00:47 25.74453 -80.13086 6663 ft 299 kts 111°
2026-05-04 00:48 25.74288 -80.10840 7873 ft 295 kts 79°
2026-05-04 00:48 25.75157 -80.08742 8598 ft 308 kts 50°
2026-05-04 00:48 25.76622 -80.07084 9927 ft 294 kts 40°
2026-05-04 00:48 25.78047 -80.05398 10573 ft 312 kts 49°
2026-05-04 00:49 25.79431 -80.03417 10994 ft 333 kts 51°
2026-05-04 00:49 25.80916 -80.01451 11945 ft 334 kts 46°
2026-05-04 00:49 25.82535 -79.99503 12423 ft 351 kts 45°
2026-05-04 00:49 25.84210 -79.97493 13119 ft 361 kts 46°
2026-05-04 00:50 25.85913 -79.95356 13569 ft 378 kts 47°
2026-05-04 00:50 25.87651 -79.93087 13935 ft 394 kts 48°
2026-05-04 00:50 25.89476 -79.90706 14028 ft 416 kts 48°
2026-05-04 00:50 25.91430 -79.88227 14065 ft 437 kts 47°
2026-05-04 00:51 25.93472 -79.85653 14216 ft 449 kts 47°
2026-05-04 00:51 25.95525 -79.83034 14696 ft 451 kts 47°
2026-05-04 00:51 25.97591 -79.80387 15104 ft 455 kts 47°
2026-05-04 00:51 25.99680 -79.77721 15516 ft 460 kts 47°
2026-05-04 00:52 26.01798 -79.75025 15910 ft 464 kts 47°
2026-05-04 00:52 26.03923 -79.72313 16308 ft 467 kts 47°
2026-05-04 00:52 26.06058 -79.69581 16683 ft 470 kts 47°
2026-05-04 00:52 26.08212 -79.66826 17048 ft 474 kts 47°
2026-05-04 00:53 26.10377 -79.64041 17392 ft 477 kts 49°
2026-05-04 00:53 26.12345 -79.61046 17681 ft 481 kts 53°
2026-05-04 00:53 26.14272 -79.57993 18019 ft 484 kts 54°
2026-05-04 00:53 26.16212 -79.54921 18319 ft 487 kts 53°
2026-05-04 00:54 26.18207 -79.51862 18572 ft 488 kts 50°
2026-05-04 00:54 26.20617 -79.49208 18769 ft 489 kts 37°
2026-05-04 00:54 26.23350 -79.47036 19044 ft 488 kts 30°
2026-05-04 00:54 26.26240 -79.45048 19303 ft 489 kts 27°
2026-05-04 00:55 26.29147 -79.43057 19546 ft 493 kts 30°
2026-05-04 00:55 26.31949 -79.40828 19801 ft 496 kts 34°
2026-05-04 00:55 26.34687 -79.38477 20031 ft 498 kts 34°
2026-05-04 00:55 26.37495 -79.36212 20269 ft 499 kts 31°
2026-05-04 00:56 26.40369 -79.34029 20492 ft 501 kts 31°
2026-05-04 00:56 26.43228 -79.31797 20710 ft 503 kts 32°
2026-05-04 00:56 26.46063 -79.29495 20917 ft 505 kts 33°
2026-05-04 00:56 26.48920 -79.27191 21076 ft 508 kts 32°
2026-05-04 00:57 26.51810 -79.24916 21284 ft 510 kts 31°
2026-05-04 00:57 26.54717 -79.22624 21463 ft 512 kts 32°
2026-05-04 00:57 26.57615 -79.20305 21649 ft 514 kts 32°
2026-05-04 00:57 26.60520 -79.17975 21822 ft 515 kts 32°
2026-05-04 00:58 26.63442 -79.15647 21996 ft 516 kts 32°
2026-05-04 00:58 26.66373 -79.13317 22148 ft 518 kts 32°
2026-05-04 00:58 26.69310 -79.10971 22315 ft 519 kts 32°
2026-05-04 00:58 26.72247 -79.08618 22472 ft 521 kts 32°
2026-05-04 00:59 26.75199 -79.06256 22621 ft 522 kts 32°
2026-05-04 00:59 26.78158 -79.03891 22740 ft 524 kts 32°
2026-05-04 00:59 26.81130 -79.01513 22885 ft 525 kts 32°
2026-05-04 00:59 26.84103 -78.99128 23020 ft 527 kts 32°
2026-05-04 01:00 26.87085 -78.96736 23148 ft 528 kts 32°
2026-05-04 01:00 26.90077 -78.94337 23268 ft 529 kts 32°
2026-05-04 01:00 26.93072 -78.91932 23383 ft 531 kts 32°
2026-05-04 01:00 26.96076 -78.89519 23503 ft 532 kts 32°
2026-05-04 01:01 26.99083 -78.87100 23602 ft 532 kts 32°
2026-05-04 01:01 27.02055 -78.84710 23695 ft 533 kts 32°
2026-05-04 01:01 27.05068 -78.82284 23861 ft 533 kts 32°
2026-05-04 01:01 27.08078 -78.79858 23943 ft 534 kts 32°
2026-05-04 01:02 27.11095 -78.77428 24028 ft 534 kts 32°
2026-05-04 01:02 27.14117 -78.74990 24105 ft 535 kts 32°
2026-05-04 01:02 27.17135 -78.72552 24394 ft 530 kts 32°
2026-05-04 01:02 27.20108 -78.70147 24789 ft 525 kts 32°
2026-05-04 01:03 27.22994 -78.67811 25939 ft 499 kts 31°
2026-05-04 01:03 27.25769 -78.65619 27137 ft 476 kts 27°
2026-05-04 01:03 27.28708 -78.63957 27456 ft 472 kts 14°
2026-05-04 01:03 27.31839 -78.62955 27823 ft 464 kts
2026-05-04 01:04 27.35025 -78.62479 28177 ft 463 kts 359°
2026-05-04 01:04 27.38235 -78.62064 28567 ft 465 kts 358°
2026-05-04 01:04 27.41459 -78.61655 28948 ft 468 kts 358°
2026-05-04 01:04 27.44708 -78.61235 29311 ft 471 kts 359°
2026-05-04 01:05 27.47972 -78.60807 29688 ft 474 kts 359°
2026-05-04 01:05 27.51257 -78.60380 30052 ft 477 kts 358°
2026-05-04 01:05 27.54562 -78.59953 30373 ft 480 kts 358°
2026-05-04 01:05 27.57889 -78.59521 30688 ft 482 kts 358°
2026-05-04 01:06 27.61235 -78.59086 30955 ft 488 kts 359°
2026-05-04 01:06 27.64632 -78.58646 31170 ft 493 kts 359°
2026-05-04 01:06 27.68051 -78.58198 31495 ft 496 kts 359°
2026-05-04 01:06 27.71487 -78.57749 31799 ft 499 kts 358°
2026-05-04 01:07 27.74948 -78.57299 32111 ft 502 kts 358°
2026-05-04 01:07 27.78426 -78.56847 32398 ft 505 kts 358°
2026-05-04 01:07 27.81880 -78.56395 32692 ft 508 kts 358°
2026-05-04 01:07 27.85398 -78.55935 32977 ft 511 kts 358°
2026-05-04 01:08 27.88937 -78.55473 33280 ft 514 kts 358°
2026-05-04 01:08 27.92506 -78.55013 33459 ft 519 kts 357°
2026-05-04 01:08 27.96101 -78.54550 33716 ft 521 kts 357°
2026-05-04 01:08 27.99713 -78.54080 33978 ft 524 kts 357°
2026-05-04 01:09 28.03341 -78.53584 34240 ft 526 kts 357°
2026-05-04 01:09 28.06978 -78.53099 34509 ft 527 kts 357°
2026-05-04 01:09 28.10623 -78.52631 34770 ft 528 kts 356°
2026-05-04 01:09 28.14274 -78.52158 35063 ft 528 kts 356°
2026-05-04 01:10 28.17932 -78.51672 35364 ft 530 kts 356°
2026-05-04 01:10 28.21602 -78.51186 35518 ft 533 kts 356°
2026-05-04 01:10 28.25292 -78.50704 35747 ft 534 kts 356°
2026-05-04 01:10 28.28990 -78.50219 35933 ft 536 kts 356°
2026-05-04 01:11 28.32710 -78.49728 36095 ft 539 kts 356°
2026-05-04 01:11 28.36430 -78.49233 36415 ft 537 kts 356°
2026-05-04 01:11 28.40138 -78.48743 36722 ft 536 kts 355°
2026-05-04 01:11 28.43842 -78.48256 37030 ft 535 kts 355°
2026-05-04 01:12 28.47538 -78.47769 37362 ft 534 kts 355°
2026-05-04 01:12 28.51237 -78.47281 37508 ft 537 kts 355°
2026-05-04 01:12 28.54950 -78.46789 37789 ft 536 kts 355°
2026-05-04 01:12 28.58653 -78.46296 38078 ft 536 kts 355°
2026-05-04 01:13 28.62352 -78.45806 38357 ft 535 kts 355°
2026-05-04 01:13 28.66050 -78.45317 38628 ft 535 kts 355°
2026-05-04 01:13 28.69742 -78.44827 38875 ft 534 kts 355°
2026-05-04 01:13 28.73428 -78.44336 39157 ft 532 kts 355°
2026-05-04 01:14 28.77047 -78.43853 39445 ft 531 kts 354°
2026-05-04 01:14 28.80713 -78.43369 39623 ft 531 kts 354°
2026-05-04 01:14 28.84378 -78.42882 39898 ft 529 kts 354°
2026-05-04 01:14 28.88021 -78.42394 40208 ft 526 kts 354°
2026-05-04 01:15 28.91650 -78.41909 40489 ft 523 kts 354°
2026-05-04 01:15 28.95259 -78.41430 40774 ft 521 kts 354°
2026-05-04 01:15 28.98850 -78.40952 41061 ft 519 kts 354°
2026-05-04 01:16 29.06056 -78.39994 41097 ft 524 kts 354°
2026-05-04 01:16 29.13335 -78.39019 41104 ft 530 kts 354°
2026-05-04 01:17 29.20717 -78.38031 41119 ft 537 kts 354°
2026-05-04 01:17 29.28177 -78.37027 41120 ft 541 kts 354°
2026-05-04 01:18 29.35662 -78.36022 41122 ft 543 kts 354°
2026-05-04 01:18 29.43161 -78.35011 41127 ft 543 kts 354°
2026-05-04 01:19 29.50608 -78.34417 41129 ft 523 kts 343°
2026-05-04 01:19 29.57833 -78.34950 41129 ft 520 kts 343°
2026-05-04 01:20 29.65070 -78.35488 41125 ft 523 kts 343°
2026-05-04 01:20 29.72331 -78.36022 41132 ft 523 kts 343°
2026-05-04 01:21 29.79588 -78.36586 41136 ft 521 kts 342°
2026-05-04 01:21 29.86765 -78.37148 41157 ft 532 kts 351°
2026-05-04 01:22 29.94251 -78.36416 41140 ft 542 kts 352°
2026-05-04 01:22 30.01824 -78.35198 41136 ft 555 kts 359°
2026-05-04 01:23 30.09408 -78.33889 41150 ft 548 kts 355°
2026-05-04 01:23 30.16991 -78.32714 41155 ft 552 kts 357°
2026-05-04 01:24 30.24579 -78.31412 41201 ft 548 kts 356°
2026-05-04 01:24 30.32144 -78.30211 41250 ft 551 kts 356°
2026-05-04 01:25 30.39733 -78.28931 41168 ft 550 kts 356°
2026-05-04 01:25 30.47307 -78.27703 41161 ft 551 kts 356°
2026-05-04 01:26 30.54908 -78.26435 41157 ft 552 kts 356°
2026-05-04 01:26 30.62503 -78.25184 41160 ft 551 kts 356°
2026-05-04 01:27 30.70041 -78.23933 41159 ft 550 kts 356°
2026-05-04 01:27 30.77640 -78.22675 41163 ft 553 kts 357°
2026-05-04 01:28 30.85249 -78.21406 41166 ft 552 kts 357°
2026-05-04 01:28 30.92859 -78.20141 41166 ft 552 kts 357°
2026-05-04 01:29 31.00464 -78.18873 41159 ft 553 kts 357°
2026-05-04 01:29 31.08073 -78.17600 41164 ft 552 kts 357°
2026-05-04 01:30 31.15667 -78.16332 41162 ft 552 kts 357°
2026-05-04 01:30 31.23280 -78.15056 41167 ft 553 kts 357°
2026-05-04 01:31 31.30910 -78.13775 41167 ft 553 kts 357°
2026-05-04 01:31 31.38509 -78.12496 41168 ft 551 kts 357°
2026-05-04 01:32 31.46104 -78.11218 41168 ft 552 kts 358°
2026-05-04 01:32 31.53664 -78.09919 41186 ft 554 kts 358°
2026-05-04 01:33 31.61271 -78.08620 41172 ft 551 kts 358°
2026-05-04 01:33 31.68854 -78.07322 41170 ft 551 kts 358°
2026-05-04 01:34 31.76438 -78.06021 41175 ft 551 kts 358°
2026-05-04 01:34 31.84023 -78.04718 41168 ft 550 kts 358°
2026-05-04 01:35 31.91593 -78.03415 41168 ft 550 kts 358°
2026-05-04 01:35 31.99171 -78.02110 41169 ft 551 kts 358°
2026-05-04 01:36 32.06764 -78.00798 41183 ft 553 kts 358°
2026-05-04 01:36 32.14336 -77.99485 41171 ft 548 kts 358°
2026-05-04 01:37 32.21876 -77.98184 41167 ft 548 kts 358°
2026-05-04 01:37 32.29422 -77.96871 41167 ft 548 kts 358°
2026-05-04 01:38 32.36968 -77.95560 41151 ft 547 kts 358°
2026-05-04 01:38 32.44516 -77.94248 41165 ft 550 kts 358°
2026-05-04 01:39 32.50820 -77.93145 41170 ft 551 kts 358°
2026-05-04 01:39 32.58404 -77.91822 41204 ft 551 kts 358°
2026-05-04 01:40 32.65962 -77.90496 41171 ft 547 kts 358°
2026-05-04 01:40 32.73484 -77.89182 41166 ft 546 kts 358°
2026-05-04 01:41 32.81008 -77.87859 41162 ft 547 kts 358°
2026-05-04 01:41 32.88529 -77.86537 41162 ft 546 kts 358°
2026-05-04 01:42 32.96054 -77.85211 41163 ft 546 kts 358°
2026-05-04 01:42 33.03577 -77.83883 41163 ft 546 kts 358°
2026-05-04 01:43 33.11098 -77.82555 41155 ft 546 kts 359°
2026-05-04 01:43 33.18589 -77.81225 41168 ft 543 kts 359°
2026-05-04 01:44 33.26076 -77.79901 41161 ft 545 kts 359°
2026-05-04 01:44 33.33473 -77.78583 41162 ft 545 kts 359°
2026-05-04 01:45 33.40910 -77.77260 41155 ft 542 kts 359°
2026-05-04 01:45 33.52084 -77.75269 41150 ft 541 kts 359°
2026-05-04 01:46 33.59539 -77.73933 41150 ft 542 kts 359°
2026-05-04 01:46 33.66984 -77.72600 41147 ft 538 kts 359°
2026-05-04 01:47 33.74385 -77.71032 41150 ft 541 kts
2026-05-04 01:47 33.81822 -77.69444 41145 ft 544 kts
2026-05-04 01:48 33.89268 -77.67798 41147 ft 542 kts
2026-05-04 01:48 33.96635 -77.65876 41167 ft 550 kts 12°
2026-05-04 01:49 34.03875 -77.62766 41147 ft 555 kts 13°
2026-05-04 01:49 34.11025 -77.59114 41151 ft 558 kts 15°
2026-05-04 01:50 34.18228 -77.55707 41139 ft 556 kts 13°
2026-05-04 01:50 34.25432 -77.52158 41137 ft 561 kts 15°
2026-05-04 01:51 34.32673 -77.48639 41145 ft 561 kts 14°